TimeEDT,TemperatureF,Dew PointF,Humidity,Sea Level PressureIn,VisibilityMPH,Wind Direction,Wind SpeedMPH,Gust SpeedMPH,PrecipitationIn,Events,Conditions,WindDirDegrees,DateUTC
12:13 AM,73.4,69.8,88,29.79,5.0,Calm,Calm,-,N/A,,Mostly Cloudy,0,2013-09-01 04:13:00
12:30 AM,71.6,69.8,94,29.80,4.0,Calm,Calm,-,N/A,,Mostly Cloudy,0,2013-09-01 04:30:00
12:51 AM,72.0,70.0,93,29.78,4.0,Calm,Calm,-,N/A,,Partly Cloudy,0,2013-09-01 04:51:00
1:51 AM,72.0,70.0,93,29.76,3.0,Calm,Calm,-,N/A,,Partly Cloudy,0,2013-09-01 05:51:00
2:51 AM,72.0,70.0,93,29.76,3.0,Calm,Calm,-,N/A,,Mostly Cloudy,0,2013-09-01 06:51:00
3:51 AM,72.0,70.0,93,29.76,5.0,Calm,Calm,-,N/A,,Overcast,0,2013-09-01 07:51:00
4:51 AM,72.0,68.0,87,29.78,9.0,West,4.6,-,N/A,,Mostly Cloudy,260,2013-09-01 08:51:00
5:51 AM,72.0,68.0,87,29.79,10.0,Variable,3.5,-,N/A,,Partly Cloudy,0,2013-09-01 09:51:00
6:51 AM,73.0,66.9,81,29.81,10.0,West,3.5,-,N/A,,Clear,260,2013-09-01 10:51:00
7:51 AM,73.0,66.9,81,29.83,10.0,Calm,Calm,-,N/A,,Mostly Cloudy,0,2013-09-01 11:51:00
8:51 AM,75.9,68.0,76,29.84,10.0,Calm,Calm,-,N/A,,Clear,0,2013-09-01 12:51:00
9:51 AM,77.0,68.0,74,29.83,10.0,WSW,3.5,-,N/A,,Clear,250,2013-09-01 13:51:00
10:51 AM,81.0,66.9,62,29.85,10.0,Calm,Calm,-,N/A,,Scattered Clouds,0,2013-09-01 14:51:00
11:51 AM,81.0,66.0,60,29.84,10.0,Variable,3.5,-,N/A,,Mostly Cloudy,0,2013-09-01 15:51:00
12:51 PM,80.1,69.1,69,29.85,10.0,Variable,3.5,-,N/A,,Overcast,0,2013-09-01 16:51:00
1:51 PM,82.9,69.1,63,29.83,10.0,Calm,Calm,-,0.00,,Mostly Cloudy,0,2013-09-01 17:51:00
2:51 PM,84.9,68.0,57,29.82,10.0,Calm,Calm,-,N/A,,Partly Cloudy,0,2013-09-01 18:51:00
3:51 PM,86.0,68.0,55,29.82,10.0,Calm,Calm,-,N/A,,Partly Cloudy,0,2013-09-01 19:51:00
4:51 PM,80.1,69.1,69,29.82,10.0,East,6.9,-,N/A,,Overcast,90,2013-09-01 20:51:00
5:23 PM,80.6,69.8,70,29.84,10.0,East,6.9,-,0.00,,Mostly Cloudy,100,2013-09-01 21:23:00
5:51 PM,79.0,70.0,74,29.83,10.0,ENE,3.5,-,0.00,,Mostly Cloudy,70,2013-09-01 21:51:00
6:47 PM,75.2,69.8,83,29.86,10.0,ENE,3.5,-,N/A,Thunderstorm,Mostly Cloudy,70,2013-09-01 22:47:00
6:51 PM,75.0,70.0,84,29.85,10.0,East,4.6,-,N/A,Thunderstorm,Mostly Cloudy,90,2013-09-01 22:51:00
7:01 PM,75.2,69.8,83,29.86,10.0,Calm,Calm,-,N/A,Thunderstorm,Mostly Cloudy,0,2013-09-01 23:01:00
7:22 PM,75.2,69.8,83,29.87,10.0,SSE,3.5,-,N/A,,Overcast,160,2013-09-01 23:22:00
7:31 PM,73.4,69.8,88,29.86,10.0,ESE,3.5,-,N/A,Thunderstorm,Overcast,120,2013-09-01 23:31:00
7:47 PM,73.4,69.8,88,29.87,10.0,SE,3.5,-,0.00,Rain,Light Rain,140,2013-09-01 23:47:00
7:51 PM,73.0,70.0,90,29.86,10.0,SE,3.5,-,0.00,Rain,Light Rain,130,2013-09-01 23:51:00
8:15 PM,71.6,69.8,94,29.88,10.0,Calm,Calm,-,0.00,Rain,Light Rain,0,2013-09-02 00:15:00
8:51 PM,71.1,69.1,93,29.86,10.0,Calm,Calm,-,0.00,,Partly Cloudy,0,2013-09-02 00:51:00
9:12 PM,71.6,69.8,94,29.87,9.0,NNE,4.6,-,N/A,,Mostly Cloudy,20,2013-09-02 01:12:00
9:28 PM,71.6,69.8,94,29.88,6.0,ENE,5.8,-,N/A,,Overcast,70,2013-09-02 01:28:00
9:51 PM,71.1,69.1,93,29.87,7.0,ESE,3.5,-,N/A,,Overcast,110,2013-09-02 01:51:00
10:51 PM,70.0,68.0,93,29.87,5.0,Calm,Calm,-,N/A,,Overcast,0,2013-09-02 02:51:00
11:43 PM,69.8,68.0,94,29.87,2.0,ESE,3.5,-,0.03,Rain,Light Rain,120,2013-09-02 03:43:00
11:51 PM,69.1,68.0,96,29.86,1.8,Calm,Calm,-,0.04,Rain,Rain,0,2013-09-02 03:51:00
11:55 PM,69.8,68.0,94,29.88,2.0,Calm,Calm,-,0.00,Rain-Thunderstorm,Light Rain,0,2013-09-02 03:55:00